When you browse on this site, cookies collect data to enhance your experience and personalize the content and advertising you see.
Visit our Privacy Policy to learn more. By continuing to use the site, you agree to this use of cookies and data.

Hourly Weather Teplovo

Today, 13 July, Monday

Time Temperature Precipitation Wind Pressure Humidity
00:00 +12°C° 0 mm 2 mps 742 mmHg 94%
01:00 +12°C° 0 mm 1 mps 742 mmHg 94%
02:00 +11°C° 0 mm 1 mps 742 mmHg 94%
03:00 +11°C° 0 mm 1 mps 741 mmHg 94%
04:00 +12°C° 0 mm 2 mps 741 mmHg 93%
05:00 +12°C° 0 mm 2 mps 741 mmHg 93%
06:00 +12°C° 0.2 mm 2 mps 741 mmHg 94%
07:00 +12°C° 0.2 mm 2 mps 741 mmHg 95%
08:00 +12°C° 0.2 mm 2 mps 741 mmHg 96%
09:00 +13°C° 0.6 mm 2 mps 741 mmHg 96%
10:00 +13°C° 0.6 mm 2 mps 740 mmHg 97%
11:00 +13°C° 0.6 mm 2 mps 740 mmHg 97%
12:00 +13°C° 0.2 mm 2 mps 740 mmHg 97%
13:00 +13°C° 0.2 mm 2 mps 740 mmHg 96%
14:00 +13°C° 0.2 mm 2 mps 740 mmHg 96%
15:00 +13°C° 0.5 mm 2 mps 740 mmHg 96%
16:00 +13°C° 0.5 mm 2 mps 739 mmHg 96%
17:00 +13°C° 0.5 mm 2 mps 739 mmHg 97%
18:00 +13°C° 0.2 mm 2 mps 739 mmHg 97%
19:00 +13°C° 0.2 mm 1 mps 739 mmHg 97%
20:00 +13°C° 0.2 mm 1 mps 739 mmHg 97%
21:00 +13°C° 0 mm 1 mps 739 mmHg 97%
22:00 +13°C° 0 mm 1 mps 739 mmHg 97%
23:00 +13°C° 0 mm 1 mps 738 mmHg 97%

Tomorrow, 14 July, Tuesday

Time Temperature Precipitation Wind Pressure Humidity
00:00 +13°C° 0 mm 2 mps 739 mmHg 97%
01:00 +13°C° 0 mm 2 mps 739 mmHg 96%
02:00 +12°C° 0 mm 2 mps 739 mmHg 96%
03:00 +12°C° 0 mm 2 mps 739 mmHg 96%
04:00 +12°C° 0 mm 2 mps 738 mmHg 95%
05:00 +12°C° 0 mm 2 mps 738 mmHg 95%
06:00 +13°C° 0 mm 3 mps 738 mmHg 89%
07:00 +14°C° 0 mm 3 mps 739 mmHg 82%
08:00 +17°C° 0 mm 3 mps 739 mmHg 76%
09:00 +18°C° 0 mm 4 mps 739 mmHg 69%
10:00 +19°C° 0 mm 4 mps 738 mmHg 63%
11:00 +21°C° 0 mm 4 mps 738 mmHg 56%
12:00 +21°C° 0 mm 4 mps 738 mmHg 54%
13:00 +22°C° 0 mm 5 mps 738 mmHg 52%
14:00 +22°C° 0 mm 5 mps 738 mmHg 50%
15:00 +22°C° 0 mm 5 mps 737 mmHg 52%
16:00 +21°C° 0 mm 4 mps 737 mmHg 55%
17:00 +21°C° 0 mm 4 mps 736 mmHg 57%
18:00 +20°C° 0 mm 4 mps 736 mmHg 59%
19:00 +19°C° 0 mm 5 mps 736 mmHg 61%
20:00 +17°C° 0 mm 5 mps 735 mmHg 63%
21:00 +16°C° 0.2 mm 5 mps 735 mmHg 65%
22:00 +16°C° 0.2 mm 5 mps 734 mmHg 67%
23:00 +15°C° 0.2 mm 5 mps 734 mmHg 68%

Day after tomorrow, 15 July, Wednesday

Time Temperature Precipitation Wind Pressure Humidity
00:00 +14°C° 1.6 mm 5 mps 734 mmHg 75%
01:00 +12°C° 1.6 mm 5 mps 733 mmHg 82%
02:00 +10°C° 1.6 mm 5 mps 733 mmHg 89%
03:00 +10°C° 2.6 mm 6 mps 733 mmHg 92%
04:00 +10°C° 2.6 mm 6 mps 733 mmHg 94%
05:00 +10°C° 2.6 mm 7 mps 733 mmHg 96%
06:00 +10°C° 0.6 mm 6 mps 733 mmHg 96%
07:00 +10°C° 0.6 mm 6 mps 733 mmHg 96%
08:00 +10°C° 0.6 mm 6 mps 733 mmHg 96%
09:00 +11°C° 0.3 mm 6 mps 733 mmHg 95%
10:00 +11°C° 0.3 mm 6 mps 733 mmHg 94%
11:00 +11°C° 0.3 mm 6 mps 733 mmHg 93%
12:00 +13°C° 0.1 mm 6 mps 734 mmHg 91%
13:00 +13°C° 0.1 mm 6 mps 734 mmHg 90%
14:00 +13°C° 0.1 mm 6 mps 734 mmHg 88%
15:00 +13°C° 0.2 mm 6 mps 734 mmHg 89%
16:00 +13°C° 0.2 mm 6 mps 734 mmHg 90%
17:00 +13°C° 0.2 mm 6 mps 734 mmHg 91%
18:00 +13°C° 0.6 mm 6 mps 734 mmHg 92%
19:00 +12°C° 0.6 mm 5 mps 735 mmHg 93%
20:00 +12°C° 0.6 mm 5 mps 735 mmHg 94%
21:00 +12°C° 1.1 mm 5 mps 735 mmHg 94%
22:00 +12°C° 1.1 mm 5 mps 735 mmHg 95%
23:00 +12°C° 1.1 mm 5 mps 735 mmHg 95%

16 July, Thursday

Time Temperature Precipitation Wind Pressure Humidity
00:00 +12°C° 0.1 mm 5 mps 734 mmHg 95%
01:00 +12°C° 0.1 mm 5 mps 734 mmHg 94%
02:00 +12°C° 0.1 mm 4 mps 734 mmHg 94%
03:00 +12°C° 0.1 mm 4 mps 734 mmHg 93%
04:00 +12°C° 0.1 mm 4 mps 734 mmHg 92%
05:00 +12°C° 0.1 mm 4 mps 734 mmHg 91%
06:00 +12°C° 0.1 mm 4 mps 734 mmHg 89%
07:00 +13°C° 0.1 mm 4 mps 734 mmHg 87%
08:00 +13°C° 0.1 mm 4 mps 735 mmHg 85%
09:00 +13°C° 0.3 mm 4 mps 735 mmHg 87%
10:00 +14°C° 0.3 mm 4 mps 735 mmHg 88%
11:00 +14°C° 0.3 mm 4 mps 735 mmHg 89%
12:00 +14°C° 0.2 mm 4 mps 735 mmHg 90%
13:00 +14°C° 0.2 mm 4 mps 735 mmHg 90%
14:00 +14°C° 0.2 mm 4 mps 736 mmHg 90%
15:00 +14°C° 0.1 mm 4 mps 736 mmHg 89%
16:00 +15°C° 0.1 mm 4 mps 736 mmHg 88%
17:00 +15°C° 0.1 mm 4 mps 736 mmHg 87%
18:00 +14°C° 0.1 mm 3 mps 736 mmHg 88%
19:00 +14°C° 0.1 mm 3 mps 736 mmHg 89%
20:00 +13°C° 0.1 mm 3 mps 737 mmHg 91%
21:00 +13°C° 0 mm 3 mps 737 mmHg 91%
22:00 +13°C° 0 mm 3 mps 737 mmHg 92%
23:00 +13°C° 0 mm 3 mps 737 mmHg 92%

17 July, Friday

Time Temperature Precipitation Wind Pressure Humidity
00:00 +13°C° 0 mm 3 mps 737 mmHg 93%
01:00 +12°C° 0 mm 3 mps 737 mmHg 93%
02:00 +12°C° 0 mm 3 mps 737 mmHg 94%
03:00 +12°C° 0 mm 3 mps 737 mmHg 93%
04:00 +12°C° 0 mm 3 mps 737 mmHg 92%
05:00 +12°C° 0 mm 3 mps 737 mmHg 91%
06:00 +13°C° 0 mm 3 mps 737 mmHg 89%
07:00 +14°C° 0 mm 3 mps 738 mmHg 87%
08:00 +14°C° 0 mm 3 mps 738 mmHg 85%
09:00 +16°C° 0 mm 3 mps 738 mmHg 82%
10:00 +17°C° 0 mm 3 mps 738 mmHg 79%
11:00 +17°C° 0 mm 3 mps 738 mmHg 76%
12:00 +18°C° 0.1 mm 3 mps 739 mmHg 76%
13:00 +18°C° 0.1 mm 3 mps 739 mmHg 75%
14:00 +18°C° 0.1 mm 3 mps 739 mmHg 75%
15:00 +18°C° 0 mm 3 mps 739 mmHg 75%
16:00 +18°C° 0 mm 3 mps 739 mmHg 76%
17:00 +18°C° 0 mm 3 mps 739 mmHg 76%
18:00 +17°C° 0 mm 3 mps 739 mmHg 80%
19:00 +16°C° 0 mm 2 mps 739 mmHg 84%
20:00 +15°C° 0 mm 2 mps 739 mmHg 88%
21:00 +14°C° 0 mm 2 mps 740 mmHg 91%
22:00 +13°C° 0 mm 2 mps 740 mmHg 94%
23:00 +12°C° 0 mm 2 mps 740 mmHg 97%

18 July, Saturday

Time Temperature Precipitation Wind Pressure Humidity
00:00 +10°C° 0 mm 2 mps 740 mmHg 97%
01:00 +10°C° 0 mm 2 mps 740 mmHg 97%
02:00 +9°C° 0 mm 2 mps 740 mmHg 97%
03:00 +10°C° 0 mm 2 mps 740 mmHg 95%
04:00 +10°C° 0 mm 3 mps 741 mmHg 93%
05:00 +10°C° 0 mm 3 mps 741 mmHg 91%
06:00 +11°C° 0 mm 3 mps 741 mmHg 86%
07:00 +12°C° 0 mm 3 mps 741 mmHg 81%
08:00 +13°C° 0 mm 4 mps 741 mmHg 76%
09:00 +13°C° 0 mm 3 mps 741 mmHg 76%
10:00 +13°C° 0 mm 3 mps 741 mmHg 76%
11:00 +13°C° 0 mm 3 mps 741 mmHg 75%
12:00 +14°C° 0 mm 3 mps 741 mmHg 75%
13:00 +14°C° 0 mm 3 mps 741 mmHg 74%
14:00 +14°C° 0 mm 3 mps 741 mmHg 74%
15:00 +14°C° 0 mm 3 mps 742 mmHg 76%
16:00 +15°C° 0 mm 2 mps 742 mmHg 79%
17:00 +14°C° 0 mm 2 mps 742 mmHg 81%
18:00 +14°C° 0 mm 2 mps 742 mmHg 83%
19:00 +13°C° 0 mm 1 mps 742 mmHg 86%
20:00 +13°C° 0 mm 1 mps 742 mmHg 88%
21:00 +13°C° 0 mm 1 mps 742 mmHg 87%
22:00 +13°C° 0 mm 1 mps 742 mmHg 86%
23:00 +12°C° 0 mm 2 mps 742 mmHg 86%
Show more